LIRALIMJ

Guest
Details From LIRA - CIAMPINO
To LIMJ - Genova Sestri
Flight Number -
Tags generated
Created
Modified
Stats Distance 236 nm / 436 km
Max Altitude 28,400 ft / 8,656 m
Waypoints 5
Social Downloads 1
Likes 0
Share VATSIM

Download

Looking for another format? Having issues loading an existing format? Contact us
Advertisement - Login to hide

Notes

Basic altitude profile: - Ascent Rate: 2500ft/min - Ascent Speed: 250kts - Cruise Altitude: 16000ft - Cruise Speed: 320kts - Descent Rate: 1500ft/min - Descent Speed: 250kts Options: - Use NATs: no - Use PACOTS: no - Use low airways: yes - Use high airways: no

Route

LIRA ELKAP L146 ELB M729 NORNI LIMJ

ID Type Via Altitude Latitude Longitude Leg Dist Tot Dist Heading (true) Name
O LIRA APT - 0 ft / 0 m 41.79923˚ 12.59492˚ - 0 nm - CIAMPINO
ELKAP FIX - 28,400 ft / 8,656 m 42.72111˚ 10.64417˚ 102 nm 102 nm 303° / 302° -
ELB VOR L146 (AWY-LO) 18,500 ft / 5,639 m 42.73069˚ 10.39572˚ 10 nm 113 nm 273° / 273° ELBA VORTAC
NORNI FIX M729 (AWY-LO) 18,000 ft / 5,486 m 43.27889˚ 9.97972˚ 37 nm 151 nm 331° / 331° -
O LIMJ APT - 0 ft / 0 m 44.41196˚ 8.84187˚ 84 nm 235 nm 324° / 324° Genova Sestri

Altitude Profile

Advertisement - Login to hide

Weather


0- 5 10 15 20 25 30 35+ Temperature / ° C

Clouds and Precipitation
Forecast for 2017-12-14 12:00 UTC. Updated an hour ago

Ground ~20,000 ft ~40,000 ft Winds

LIRA

Details ICAO LIRA (CIA)
Name CIAMPINO
Region Italy
Timezone Europe/Rome (UTC+1.0)
Stats Elevation 427 ft / 130 m (AMSL)
Location 41.799228° 12.594917°
Runways 1
Magnetic Variation 3.057° E

METAR

LIRA 140950Z 18010KT 9999 BKN030 13/08 Q1016

Decode

TAF

TAF LIRA 140500Z 1406/1506 24018KT 9999 SCT040 TEMPO 1410/1416 RA BECMG 1418/1421 24015G25KT BECMG 1503/1506 4000 SHRA

Decode

Departure Runways

ID Width Length Bearing (true) Bearing (mag) Surface Threshold Offset Overrun Length
15 154 ft / 47 m 7,246 ft / 2,209 m 152.79° 149.73° Asphalt 0 ft / 0 m 0 ft / 0 m
33 154 ft / 47 m 7,246 ft / 2,209 m 332.80° 329.74° Asphalt 0 ft / 0 m 0 ft / 0 m

LIMJ

Details ICAO LIMJ (GOA)
Name Genova Sestri
Region Italy
Timezone Unknown (UTC+0.0)
Stats Elevation 13 ft / 4 m (AMSL)
Location 44.411957° 8.841866°
Runways 1
Magnetic Variation 2.388° E

METAR

LIMJ 140950Z 04003KT 350V080 9999 FEW026 BKN030 12/08 Q1009

Decode

TAF

TAF LIMJ 140500Z 1406/1506 15007KT 9999 SCT030 BKN060

Decode

Destination Runways

ID Width Length Bearing (true) Bearing (mag) Surface Threshold Offset Overrun Length
10 148 ft / 45 m 9,574 ft / 2,918 m 105.39° 103.00° Asphalt 0 ft / 0 m 0 ft / 0 m
28 148 ft / 45 m 9,574 ft / 2,918 m 285.41° 283.02° Asphalt 538 ft / 164 m 0 ft / 0 m

Approach Navaids

Runway Type Ident Frequency Range Bearing (true) Bearing (mag) Slope Elevation
28 Localiser GSE 109.30 MHz 18 nm / 33 km 287.30° 284.91° - 9 ft / 3 m (AMSL)
28 Glidescope GSE 109.30 MHz 10 nm / 19 km 287.30° 284.91° 3.17° 26 ft / 8 m (AMSL)
28 DME GSE 109.30 MHz 18 nm / 33 km - - - 26 ft / 8 m (AMSL)

Popular Alternatives